Location: Grasslands National Park East Block
(49.0708°N, 106.5295°W)
Time: 14:46:05
(UTC-06:00)

Vanguard 1 Rocket - Pass Details

Date: 27 September 2019
Orbit: 650 x 4226 km, 34.3° (Epoch: 12 October)

Event Time Altitude Azimuth Distance (km) Brightness Sun altitude
Rises 22:14:46 0° 275° (W) 7,683 12.9 -31.5°
Reaches altitude 10° 22:21:40 10° 266° (W) 6,091 12.0 -32.4°
Maximum altitude 22:34:28 27° 218° (SW) 3,508 10.2 -33.9°
Enters shadow 22:36:47 25° 202° (SSW) 3,329 10.0 -34.1°
Drops below altitude 10° 22:42:26 10° 165° (SSE) 3,681 - -34.8°
Sets 22:45:24 0° 153° (SSE) 4,270 - -35.1°
